CZ-6A DEB

Satellite information

Favourite Embed

Satellite Type and Status

DEBRISIN ORBIT

Key statistics

Satellite CZ-6A DEB at a glance.

Uptime

1128

Days in orbit

Revolutions

≈ 13.2

Per day

Orbit

SSO

Sun Synchronous Orbit

Inclination

98.9

Latest

Satellite identification and parameters

Extended collection of information and parameters for CZ-6A DEB.

Object identification

Identified? True

Debris? True

Object name: CZ-6A DEB

International designator: 2022-151PX

Object number (NORAD): 54886

Object ID (CCSDS): 54886

Country: PEOPLES REPUBLIC OF CHINA (PRC)

Current information (Y/N): Y

RCS size: SMALL

Orbital parameters

Period: 109.196 minutes

Inclination: 98.9261 deg

SMA: 7567.692 km

Apoapsis: 1563.581 km

Periapsis: 815.533 km

RAAN: 203.4624 deg

Eccentricy: 0.0494238

Argument of periapsis: 217.7343 deg

Mean anomaly: 138.8142 deg

Mean motion: 13.18735096 rev/day

Mean motion (dot): 0.00000351 rev/day2

B* drag term: 0.00052064572 1/REarth

Two-line elements (TLE)

Creation date: Dec. 12, 2025, 10:14 a.m.

Reference frame: TEME

Reference center: EARTH

Epoch: Dec. 12, 2025, 3:56 a.m. UTC

TLE line 0: 0 CZ-6A DEB

TLE line 1: 1 54886U 22151PX 25346.16390533 .00000351 00000-0 52065-3 0 9992

TLE line 2: 2 54886 98.9261 203.4624 0494238 217.7343 138.8142 13.18735096148357

Live tracking on map

Real-time ground track for satellite CZ-6A DEB.

In-orbit conjunctions

A list of the most updated potential collisions computed for object CZ-6A DEB.

Target Orbit TCA Probability of collision Miss distance Type
NOAA 16 DEB SSO 2024-12-05 10:52:58 0.000571605 40.0 (m) DEBRIS
CZ-6A DEB LEO 2024-11-26 23:00:35 0.0002151195 136.0 (m) DEBRIS

Associated space launch

Chinese satellite reported for atmospheric/ocean/environmental/spatial parameter research purposes, details TBD.

CZ-6A DEB was lifted into orbit during the mission ‘Long March 6A | Yunhai 3’, on board a Long March 6A space rocket.

The launch took place on Nov. 11, 2022, 10:52 p.m. from Launch Complex 9A.

For more information about the launch, click the button.

Launch to space Long March 6A | Yunhai 3
Long March 6A | Yunhai 3

Agency: N/A

Status: Launch Successful

Launch date: Nov. 11, 2022, 10:52 p.m. UTC

Rocket: Long March 6A

Launch pad: Launch Complex 9A

Location: Taiyuan Satellite Launch Center, People's Republic of China

...

Latest news about this satellite

There are no fresh news available about this satellite. Check back as we update our databases every day.


Newsletter sign-up

Weekly statistics, charts and insights to help you stay on top of the space industry.